QPF
0.00 0.00 0.00 0.00 0.00 0.00 0.00 0.01 0.01 0.01 0.03 0.05 0.09 0.07 0.04 0.02 0.01 0.01 0.02 0.03 0.02 0.01 0.00 0.01 0.01 0.02 0.05 0.08 0.09 0.06 0.06 0.05 0.07 0.10 0.11 0.11 0.12 0.13 0.13 0.13 0.15 0.16 0.16 0.18
0.00 0.00 0.00 0.00 0.00 0.00 0.00 0.00 0.00 0.01 0.04 0.06 0.07 0.06 0.04 0.01 0.00 0.01 0.01 0.01 0.01 0.01 0.01 0.01 0.01 0.03 0.04 0.04 0.05 0.07 0.08 0.09 0.11 0.11 0.10 0.10 0.10 0.12 0.12 0.12 0.13 0.14 0.16 0.18
0.00 0.01 0.01 0.01 0.00 0.00 0.00 0.00 0.00 0.01 0.04 0.06 0.04 0.02 0.03 0.02 0.00 0.01 0.02 0.01 0.01 0.01 0.01 0.02 0.02 0.03 0.05 0.07 0.08 0.09 0.10 0.11 0.11 0.11 0.11 0.11 0.09 0.10 0.10 0.09 0.10 0.10 0.10 0.12
0.00 0.01 0.01 0.01 0.00 0.00 0.00 0.00 0.00 0.01 0.03 0.03 0.01 0.01 0.01 0.01 0.00 0.01 0.01 0.02 0.02 0.01 0.01 0.01 0.02 0.03 0.03 0.04 0.06 0.07 0.07 0.08 0.11 0.12 0.12 0.12 0.12 0.12 0.11 0.10 0.08 0.09 0.10 0.11
0.00 0.01 0.01 0.01 0.00 0.00 0.00 0.02 0.02 0.01 0.01 0.02 0.01 0.00 0.01 0.01 0.00 0.00 0.01 0.01 0.01 0.00 0.01 0.01 0.01 0.02 0.03 0.04 0.05 0.04 0.04 0.05 0.08 0.11 0.12 0.12 0.13 0.13 0.12 0.11 0.10 0.10 0.12 0.13
0.01 0.02 0.03 0.02 0.00 0.00 0.00 0.02 0.01 0.01 0.02 0.02 0.01 0.03 0.04 0.03 0.01 0.00 0.00 0.01 0.01 0.00 0.01 0.02 0.01 0.02 0.03 0.03 0.05 0.05 0.06 0.07 0.08 0.11 0.14 0.15 0.14 0.12 0.13 0.13 0.13 0.12 0.11 0.11
0.02 0.02 0.04 0.03 0.01 0.01 0.02 0.04 0.01 0.02 0.03 0.02 0.02 0.04 0.04 0.02 0.01 0.00 0.00 0.01 0.01 0.00 0.01 0.02 0.02 0.03 0.04 0.04 0.06 0.07 0.08 0.08 0.08 0.11 0.12 0.11 0.11 0.11 0.11 0.11 0.11 0.11 0.09 0.08
0.02 0.03 0.06 0.03 0.02 0.04 0.05 0.02 0.01 0.03 0.03 0.02 0.02 0.02 0.02 0.01 0.01 0.01 0.00 0.01 0.01 0.01 0.01 0.02 0.02 0.03 0.04 0.05 0.07 0.08 0.08 0.09 0.09 0.11 0.10 0.09 0.09 0.09 0.10 0.11 0.12 0.11 0.11 0.09
0.04 0.06 0.05 0.01 0.02 0.02 0.03 0.02 0.02 0.03 0.03 0.02 0.02 0.01 0.01 0.01 0.02 0.02 0.02 0.02 0.02 0.01 0.01 0.02 0.03 0.04 0.05 0.07 0.08 0.08 0.06 0.05 0.07 0.09 0.10 0.12 0.12 0.11 0.11 0.13 0.12 0.12 0.11 0.08
0.03 0.04 0.02 0.02 0.02 0.01 0.03 0.02 0.03 0.03 0.02 0.02 0.01 0.00 0.01 0.01 0.02 0.02 0.02 0.02 0.03 0.02 0.01 0.02 0.04 0.05 0.05 0.06 0.07 0.06 0.05 0.03 0.04 0.04 0.05 0.07 0.09 0.09 0.09 0.10 0.11 0.12 0.11 0.09
0.06 0.06 0.03 0.04 0.04 0.04 0.02 0.02 0.02 0.02 0.01 0.01 0.00 0.00 0.01 0.01 0.01 0.01 0.02 0.02 0.02 0.02 0.02 0.02 0.02 0.03 0.04 0.05 0.05 0.03 0.03 0.02 0.03 0.03 0.03 0.03 0.03 0.03 0.05 0.05 0.07 0.07 0.07 0.07
0.09 0.08 0.07 0.07 0.02 0.02 0.01 0.01 0.02 0.01 0.00 0.00 0.00 0.01 0.01 0.01 0.01 0.01 0.01 0.01 0.02 0.03 0.03 0.03 0.03 0.02 0.03 0.04 0.03 0.03 0.03 0.03 0.03 0.03 0.03 0.03 0.03 0.04 0.05 0.05 0.06 0.06 0.05 0.05
0.05 0.05 0.06 0.04 0.01 0.01 0.02 0.01 0.02 0.02 0.00 0.01 0.01 0.02 0.02 0.02 0.01 0.01 0.01 0.02 0.02 0.02 0.03 0.04 0.05 0.04 0.03 0.03 0.03 0.04 0.04 0.03 0.03 0.03 0.03 0.04 0.04 0.03 0.03 0.03 0.04 0.04 0.04 0.04
0.04 0.03 0.04 0.03 0.02 0.02 0.02 0.01 0.01 0.01 0.01 0.01 0.02 0.02 0.02 0.01 0.01 0.01 0.01 0.02 0.03 0.03 0.04 0.06 0.07 0.07 0.05 0.05 0.05 0.05 0.05 0.05 0.05 0.04 0.03 0.03 0.04 0.03 0.02 0.02 0.02 0.02 0.02 0.02
0.04 0.03 0.02 0.03 0.04 0.03 0.03 0.03 0.03 0.02 0.01 0.01 0.02 0.03 0.02 0.01 0.01 0.01 0.02 0.03 0.03 0.04 0.04 0.06 0.07 0.07 0.08 0.07 0.06 0.05 0.05 0.04 0.03 0.03 0.03 0.03 0.03 0.02 0.02 0.01 0.01 0.02 0.02 0.02
0.05 0.03 0.02 0.04 0.06 0.05 0.02 0.02 0.03 0.02 0.02 0.02 0.03 0.04 0.02 0.01 0.01 0.01 0.02 0.02 0.03 0.05 0.05 0.06 0.06 0.07 0.09 0.08 0.05 0.04 0.04 0.04 0.03 0.03 0.02 0.02 0.02 0.02 0.02 0.02 0.02 0.02 0.01 0.01
0.08 0.07 0.04 0.04 0.06 0.04 0.02 0.03 0.03 0.03 0.04 0.04 0.04 0.04 0.04 0.03 0.02 0.02 0.02 0.02 0.03 0.04 0.05 0.06 0.07 0.08 0.08 0.07 0.05 0.04 0.03 0.03 0.02 0.02 0.02 0.02 0.03 0.03 0.03 0.02 0.01 0.01 0.01 0.01
0.07 0.06 0.04 0.04 0.04 0.04 0.03 0.05 0.05 0.05 0.07 0.06 0.05 0.04 0.04 0.04 0.05 0.06 0.05 0.04 0.04 0.05 0.05 0.04 0.05 0.08 0.10 0.10 0.07 0.06 0.05 0.03 0.03 0.02 0.02 0.02 0.03 0.02 0.02 0.01 0.01 0.01 0.01 0.01
0.05 0.05 0.05 0.04 0.04 0.05 0.05 0.05 0.06 0.06 0.06 0.07 0.06 0.04 0.03 0.04 0.04 0.05 0.06 0.05 0.04 0.04 0.05 0.04 0.05 0.06 0.08 0.10 0.10 0.08 0.07 0.05 0.05 0.04 0.04 0.03 0.03 0.02 0.02 0.01 0.01 0.01 0.01 0.00
0.06 0.06 0.08 0.07 0.06 0.05 0.05 0.04 0.04 0.04 0.04 0.05 0.05 0.05 0.04 0.04 0.03 0.03 0.04 0.05 0.05 0.04 0.04 0.04 0.04 0.04 0.05 0.06 0.07 0.08 0.07 0.07 0.06 0.06 0.05 0.04 0.04 0.03 0.02 0.02 0.01 0.01 0.00 0.00
0.07 0.06 0.05 0.05 0.05 0.05 0.05 0.03 0.02 0.02 0.03 0.04 0.04 0.03 0.02 0.02 0.01 0.01 0.01 0.02 0.02 0.02 0.02 0.02 0.01 0.01 0.01 0.02 0.04 0.05 0.05 0.06 0.06 0.06 0.06 0.05 0.03 0.02 0.02 0.01 0.01 0.00 0.00 0.00
0.08 0.06 0.05 0.05 0.05 0.05 0.04 0.03 0.02 0.03 0.03 0.03 0.04 0.03 0.02 0.01 0.01 0.01 0.01 0.01 0.01 0.01 0.01 0.01 0.01 0.01 0.00 0.01 0.01 0.02 0.02 0.02 0.03 0.03 0.04 0.04 0.03 0.02 0.01 0.01 0.01 0.01 0.01 0.00
0.08 0.06 0.06 0.06 0.04 0.03 0.03 0.03 0.03 0.03 0.04 0.04 0.03 0.02 0.02 0.01 0.01 0.01 0.01 0.01 0.01 0.01 0.01 0.01 0.01 0.01 0.00 0.00 0.00 0.01 0.02 0.02 0.02 0.02 0.02 0.03 0.03 0.02 0.02 0.01 0.01 0.01 0.01 0.01
0.07 0.05 0.06 0.07 0.05 0.03 0.03 0.03 0.03 0.03 0.03 0.03 0.03 0.02 0.02 0.02 0.01 0.01 0.01 0.01 0.01 0.01 0.01 0.01 0.01 0.01 0.01 0.01 0.00 0.01 0.01 0.02 0.03 0.03 0.03 0.03 0.03 0.03 0.02 0.02 0.01 0.01 0.01 0.01
0.07 0.05 0.05 0.06 0.05 0.05 0.04 0.04 0.05 0.03 0.02 0.02 0.02 0.02 0.01 0.02 0.02 0.02 0.01 0.01 0.01 0.01 0.01 0.01 0.01 0.01 0.01 0.01 0.01 0.00 0.01 0.01 0.01 0.02 0.02 0.02 0.02 0.03 0.02 0.02 0.01 0.01 0.01 0.01
0.06 0.05 0.05 0.05 0.04 0.03 0.03 0.02 0.03 0.03 0.01 0.01 0.01 0.01 0.01 0.01 0.01 0.02 0.01 0.01 0.01 0.01 0.01 0.01 0.01 0.01 0.01 0.01 0.01 0.01 0.00 0.00 0.00 0.01 0.01 0.01 0.01 0.01 0.01 0.01 0.01 0.00 0.00 0.00
0.05 0.05 0.05 0.05 0.05 0.04 0.03 0.02 0.02 0.02 0.01 0.01 0.01 0.01 0.01 0.01 0.01 0.00 0.00 0.00 0.00 0.00 0.00 0.01 0.01 0.01 0.01 0.01 0.01 0.01 0.00 0.00 0.00 0.00 0.00 0.00 0.00 0.00 0.00 0.00 0.00 0.00 0.00 0.00
MSLP
1003.65 1003.89 1004.07 1004.22 1004.32 1004.40 1004.46 1004.49 1004.50 1004.49 1004.45 1004.39 1004.32 1004.27 1004.24 1004.25 1004.33 1004.47 1004.69 1004.99 1005.35 1005.75 1006.19 1006.63 1007.07 1007.47 1007.83 1008.12 1008.33 1008.47 1008.52 1008.49 1008.38 1008.22 1008.01 1007.79 1007.58 1007.39 1007.26 1007.19 1007.19 1007.28 1007.45 1007.69
1003.81 1003.92 1003.95 1003.90 1003.80 1003.69 1003.59 1003.53 1003.52 1003.56 1003.66 1003.80 1003.97 1004.16 1004.36 1004.56 1004.76 1004.97 1005.20 1005.45 1005.73 1006.05 1006.41 1006.81 1007.22 1007.63 1008.03 1008.37 1008.65 1008.84 1008.94 1008.94 1008.85 1008.69 1008.48 1008.25 1008.02 1007.82 1007.68 1007.59 1007.59 1007.65 1007.79 1008.00
1003.92 1003.93 1003.82 1003.62 1003.36 1003.09 1002.87 1002.74 1002.71 1002.82 1003.04 1003.35 1003.73 1004.13 1004.53 1004.90 1005.21 1005.48 1005.71 1005.92 1006.13 1006.37 1006.66 1006.99 1007.37 1007.77 1008.19 1008.57 1008.90 1009.16 1009.31 1009.36 1009.32 1009.20 1009.02 1008.83 1008.63 1008.47 1008.35 1008.30 1008.30 1008.38 1008.51 1008.70
1003.91 1003.83 1003.62 1003.31 1002.95 1002.59 1002.29 1002.12 1002.11 1002.27 1002.59 1003.04 1003.59 1004.17 1004.73 1005.23 1005.65 1005.97 1006.21 1006.39 1006.55 1006.72 1006.93 1007.19 1007.52 1007.90 1008.31 1008.71 1009.08 1009.38 1009.59 1009.71 1009.73 1009.68 1009.58 1009.45 1009.34 1009.25 1009.20 1009.21 1009.27 1009.38 1009.53 1009.73
1003.74 1003.58 1003.31 1002.94 1002.53 1002.14 1001.83 1001.66 1001.67 1001.89 1002.30 1002.87 1003.55 1004.26 1004.95 1005.56 1006.06 1006.43 1006.69 1006.86 1006.97 1007.08 1007.23 1007.43 1007.70 1008.04 1008.42 1008.82 1009.20 1009.54 1009.80 1009.98 1010.08 1010.12 1010.12 1010.09 1010.08 1010.09 1010.14 1010.24 1010.37 1010.54 1010.73 1010.94
1003.40 1003.18 1002.88 1002.51 1002.10 1001.73 1001.45 1001.32 1001.39 1001.68 1002.16 1002.82 1003.59 1004.40 1005.18 1005.87 1006.44 1006.86 1007.14 1007.31 1007.40 1007.47 1007.56 1007.71 1007.92 1008.21 1008.56 1008.95 1009.33 1009.69 1009.99 1010.24 1010.42 1010.55 1010.65 1010.75 1010.85 1010.97 1011.13 1011.32 1011.53 1011.76 1011.99 1012.22
1002.97 1002.72 1002.41 1002.05 1001.70 1001.39 1001.18 1001.13 1001.27 1001.63 1002.18 1002.90 1003.73 1004.60 1005.44 1006.18 1006.80 1007.25 1007.56 1007.74 1007.83 1007.88 1007.94 1008.05 1008.22 1008.47 1008.78 1009.14 1009.53 1009.90 1010.24 1010.55 1010.81 1011.04 1011.25 1011.45 1011.66 1011.89 1012.14 1012.41 1012.69 1012.96 1013.23 1013.48
1002.58 1002.29 1001.98 1001.67 1001.39 1001.18 1001.07 1001.12 1001.35 1001.78 1002.38 1003.15 1004.01 1004.90 1005.76 1006.53 1007.17 1007.66 1007.99 1008.18 1008.29 1008.34 1008.39 1008.48 1008.62 1008.84 1009.13 1009.48 1009.86 1010.25 1010.63 1010.99 1011.33 1011.64 1011.94 1012.24 1012.54 1012.85 1013.17 1013.50 1013.82 1014.12 1014.40 1014.64
1002.34 1002.01 1001.72 1001.47 1001.28 1001.17 1001.19 1001.35 1001.67 1002.17 1002.82 1003.61 1004.47 1005.36 1006.22 1006.98 1007.62 1008.12 1008.47 1008.69 1008.81 1008.88 1008.94 1009.03 1009.17 1009.38 1009.65 1009.99 1010.38 1010.78 1011.20 1011.61 1012.00 1012.38 1012.76 1013.12 1013.49 1013.85 1014.21 1014.56 1014.89 1015.19 1015.46 1015.68
1002.34 1001.99 1001.72 1001.54 1001.45 1001.46 1001.60 1001.87 1002.29 1002.85 1003.54 1004.33 1005.18 1006.04 1006.86 1007.60 1008.22 1008.71 1009.06 1009.30 1009.45 1009.54 1009.62 1009.72 1009.87 1010.08 1010.36 1010.70 1011.08 1011.51 1011.94 1012.38 1012.82 1013.25 1013.67 1014.08 1014.47 1014.86 1015.23 1015.57 1015.88 1016.16 1016.40 1016.59
1002.61 1002.26 1002.03 1001.92 1001.94 1002.07 1002.34 1002.72 1003.23 1003.84 1004.56 1005.34 1006.15 1006.96 1007.73 1008.42 1009.00 1009.47 1009.82 1010.07 1010.24 1010.36 1010.46 1010.58 1010.74 1010.95 1011.23 1011.56 1011.95 1012.37 1012.81 1013.27 1013.72 1014.17 1014.61 1015.03 1015.43 1015.81 1016.16 1016.49 1016.77 1017.01 1017.21 1017.36
1003.11 1002.79 1002.63 1002.61 1002.74 1003.01 1003.39 1003.87 1004.46 1005.12 1005.84 1006.61 1007.38 1008.13 1008.83 1009.46 1009.99 1010.43 1010.77 1011.02 1011.20 1011.34 1011.46 1011.59 1011.76 1011.96 1012.22 1012.53 1012.89 1013.29 1013.71 1014.15 1014.59 1015.04 1015.47 1015.88 1016.27 1016.63 1016.96 1017.26 1017.51 1017.72 1017.89 1018.02
1003.74 1003.50 1003.43 1003.53 1003.78 1004.17 1004.66 1005.25 1005.90 1006.60 1007.32 1008.06 1008.78 1009.46 1010.10 1010.66 1011.15 1011.55 1011.87 1012.12 1012.31 1012.45 1012.58 1012.71 1012.85 1013.03 1013.25 1013.51 1013.82 1014.17 1014.54 1014.93 1015.34 1015.75 1016.15 1016.54 1016.91 1017.26 1017.57 1017.85 1018.09 1018.29 1018.45 1018.57
1004.37 1004.26 1004.33 1004.56 1004.95 1005.46 1006.06 1006.72 1007.43 1008.15 1008.87 1009.57 1010.24 1010.86 1011.43 1011.94 1012.38 1012.75 1013.06 1013.30 1013.48 1013.63 1013.75 1013.85 1013.96 1014.09 1014.25 1014.44 1014.66 1014.92 1015.22 1015.54 1015.89 1016.25 1016.61 1016.97 1017.33 1017.66 1017.98 1018.26 1018.51 1018.73 1018.91 1019.05
1004.95 1005.00 1005.23 1005.61 1006.13 1006.75 1007.44 1008.17 1008.91 1009.64 1010.34 1011.01 1011.63 1012.20 1012.71 1013.18 1013.58 1013.93 1014.22 1014.46 1014.64 1014.77 1014.88 1014.95 1015.01 1015.07 1015.14 1015.23 1015.36 1015.52 1015.71 1015.95 1016.22 1016.53 1016.85 1017.19 1017.54 1017.88 1018.22 1018.53 1018.81 1019.07 1019.30 1019.49
1005.44 1005.68 1006.08 1006.61 1007.25 1007.97 1008.72 1009.49 1010.24 1010.96 1011.63 1012.26 1012.83 1013.35 1013.82 1014.25 1014.64 1014.98 1015.27 1015.50 1015.68 1015.81 1015.89 1015.93 1015.93 1015.92 1015.90 1015.89 1015.90 1015.96 1016.05 1016.20 1016.40 1016.65 1016.95 1017.28 1017.63 1018.00 1018.36 1018.72 1019.06 1019.38 1019.67 1019.93
1005.89 1006.32 1006.88 1007.54 1008.28 1009.06 1009.85 1010.62 1011.35 1012.04 1012.67 1013.24 1013.76 1014.25 1014.69 1015.10 1015.47 1015.81 1016.11 1016.35 1016.54 1016.67 1016.73 1016.73 1016.69 1016.61 1016.51 1016.41 1016.33 1016.29 1016.30 1016.38 1016.52 1016.74 1017.01 1017.34 1017.72 1018.11 1018.53 1018.94 1019.34 1019.72 1020.06 1020.38
1006.39 1006.98 1007.67 1008.43 1009.22 1010.02 1010.80 1011.55 1012.23 1012.86 1013.43 1013.95 1014.43 1014.87 1015.29 1015.69 1016.06 1016.41 1016.73 1016.99 1017.19 1017.32 1017.38 1017.37 1017.29 1017.17 1017.01 1016.85 1016.71 1016.60 1016.56 1016.59 1016.70 1016.90 1017.17 1017.52 1017.91 1018.35 1018.80 1019.26 1019.70 1020.13 1020.52 1020.87
1007.02 1007.74 1008.51 1009.31 1010.11 1010.89 1011.62 1012.30 1012.92 1013.47 1013.97 1014.43 1014.86 1015.26 1015.67 1016.06 1016.44 1016.81 1017.14 1017.43 1017.65 1017.80 1017.87 1017.86 1017.77 1017.63 1017.46 1017.27 1017.10 1016.98 1016.92 1016.93 1017.04 1017.24 1017.53 1017.89 1018.31 1018.77 1019.25 1019.73 1020.20 1020.64 1021.04 1021.40
1007.84 1008.61 1009.41 1010.21 1010.97 1011.69 1012.35 1012.95 1013.47 1013.95 1014.37 1014.77 1015.15 1015.53 1015.92 1016.31 1016.70 1017.08 1017.44 1017.74 1017.99 1018.16 1018.25 1018.25 1018.19 1018.06 1017.90 1017.73 1017.57 1017.46 1017.42 1017.46 1017.59 1017.81 1018.12 1018.50 1018.94 1019.40 1019.89 1020.36 1020.82 1021.24 1021.61 1021.95
1008.80 1009.59 1010.37 1011.12 1011.82 1012.45 1013.02 1013.52 1013.97 1014.36 1014.72 1015.07 1015.42 1015.78 1016.15 1016.54 1016.94 1017.33 1017.70 1018.02 1018.28 1018.47 1018.59 1018.62 1018.58 1018.50 1018.37 1018.25 1018.14 1018.08 1018.08 1018.17 1018.33 1018.59 1018.91 1019.31 1019.74 1020.20 1020.66 1021.10 1021.51 1021.88 1022.21 1022.48
1009.83 1010.59 1011.31 1011.99 1012.61 1013.16 1013.64 1014.06 1014.44 1014.78 1015.10 1015.41 1015.74 1016.09 1016.46 1016.85 1017.25 1017.64 1018.01 1018.33 1018.60 1018.81 1018.94 1019.00 1019.00 1018.96 1018.90 1018.83 1018.79 1018.79 1018.86 1018.99 1019.20 1019.48 1019.83 1020.22 1020.64 1021.06 1021.48 1021.87 1022.22 1022.52 1022.77 1022.98
1010.80 1011.49 1012.15 1012.76 1013.30 1013.78 1014.20 1014.57 1014.90 1015.22 1015.52 1015.84 1016.17 1016.52 1016.89 1017.28 1017.67 1018.05 1018.41 1018.72 1018.98 1019.18 1019.32 1019.41 1019.45 1019.45 1019.44 1019.44 1019.47 1019.54 1019.67 1019.86 1020.11 1020.41 1020.76 1021.14 1021.52 1021.90 1022.26 1022.59 1022.87 1023.10 1023.28 1023.42
1011.59 1012.22 1012.82 1013.36 1013.84 1014.28 1014.67 1015.02 1015.35 1015.68 1016.00 1016.34 1016.69 1017.06 1017.44 1017.83 1018.21 1018.57 1018.90 1019.19 1019.42 1019.61 1019.75 1019.84 1019.90 1019.95 1019.99 1020.05 1020.14 1020.27 1020.45 1020.68 1020.95 1021.27 1021.61 1021.96 1022.31 1022.64 1022.94 1023.20 1023.41 1023.59 1023.71 1023.81
1012.15 1012.74 1013.28 1013.78 1014.23 1014.65 1015.04 1015.42 1015.78 1016.14 1016.51 1016.89 1017.28 1017.68 1018.07 1018.45 1018.82 1019.15 1019.44 1019.69 1019.89 1020.05 1020.17 1020.26 1020.34 1020.41 1020.49 1020.60 1020.74 1020.92 1021.13 1021.39 1021.68 1021.99 1022.31 1022.63 1022.94 1023.22 1023.47 1023.68 1023.85 1023.98 1024.08 1024.15
1012.52 1013.06 1013.57 1014.05 1014.50 1014.93 1015.35 1015.76 1016.18 1016.60 1017.03 1017.46 1017.89 1018.31 1018.71 1019.09 1019.43 1019.72 1019.98 1020.18 1020.34 1020.47 1020.57 1020.65 1020.73 1020.82 1020.93 1021.08 1021.25 1021.46 1021.70 1021.97 1022.26 1022.56 1022.86 1023.15 1023.42 1023.66 1023.87 1024.05 1024.20 1024.32 1024.41 1024.48
1012.79 1013.30 1013.79 1014.26 1014.72 1015.17 1015.63 1016.09 1016.56 1017.03 1017.51 1017.99 1018.46 1018.90 1019.30 1019.66 1019.98 1020.24 1020.45 1020.61 1020.73 1020.82 1020.90 1020.98 1021.07 1021.18 1021.31 1021.48 1021.68 1021.91 1022.17 1022.44 1022.72 1023.01 1023.28 1023.54 1023.78 1024.00 1024.18 1024.35 1024.49 1024.61 1024.72 1024.81
Thickness
5781 5792 5796 5790 5791 5797 5794 5794 5783 5781 5776 5783 5790 5792 5794 5795 5796 5792 5788 5785 5781 5777 5775 5773 5771 5769 5767 5765 5764 5762 5758 5756 5753 5751 5749 5746 5743 5741 5741 5740 5738 5736 5735 5733
5770 5783 5787 5787 5792 5796 5797 5798 5794 5785 5776 5789 5794 5791 5789 5789 5788 5783 5779 5778 5775 5773 5769 5767 5765 5763 5761 5760 5759 5757 5754 5752 5750 5747 5744 5741 5739 5737 5735 5734 5733 5731 5729 5727
5757 5772 5773 5770 5790 5795 5797 5803 5799 5780 5776 5787 5785 5782 5781 5782 5781 5776 5774 5773 5769 5767 5764 5762 5761 5759 5757 5756 5755 5753 5750 5747 5745 5742 5739 5737 5735 5732 5729 5728 5726 5724 5722 5720
5755 5754 5736 5774 5806 5806 5799 5800 5803 5794 5786 5782 5782 5782 5781 5780 5776 5771 5769 5766 5764 5763 5761 5760 5759 5757 5755 5754 5750 5747 5744 5741 5740 5737 5734 5731 5729 5726 5723 5722 5719 5717 5715 5713
5748 5742 5751 5777 5795 5800 5791 5784 5795 5788 5784 5783 5782 5776 5769 5773 5772 5767 5764 5761 5760 5759 5757 5755 5753 5751 5749 5746 5744 5740 5738 5735 5734 5732 5729 5725 5721 5719 5717 5715 5712 5710 5708 5706
5742 5730 5728 5758 5789 5803 5792 5767 5787 5785 5777 5776 5773 5756 5751 5761 5762 5759 5756 5754 5752 5752 5749 5746 5745 5744 5740 5737 5735 5732 5731 5729 5727 5725 5722 5718 5715 5713 5710 5708 5705 5703 5700 5698
5733 5732 5737 5761 5778 5784 5755 5753 5780 5780 5773 5769 5765 5761 5757 5757 5753 5750 5747 5745 5744 5742 5739 5737 5737 5735 5731 5728 5726 5725 5724 5722 5720 5718 5715 5712 5709 5706 5703 5700 5697 5694 5691 5688
5732 5726 5725 5759 5762 5753 5754 5772 5775 5771 5767 5762 5760 5757 5752 5748 5743 5740 5737 5736 5735 5732 5729 5729 5728 5726 5722 5719 5719 5718 5716 5713 5711 5709 5707 5704 5701 5698 5696 5693 5689 5685 5683 5679
5733 5729 5741 5753 5753 5758 5763 5761 5763 5762 5760 5756 5751 5746 5742 5737 5733 5730 5729 5728 5726 5723 5720 5719 5719 5717 5713 5711 5711 5709 5706 5703 5700 5698 5695 5693 5691 5689 5686 5685 5682 5678 5675 5671
5727 5728 5738 5743 5748 5752 5754 5755 5756 5755 5752 5748 5741 5736 5731 5727 5723 5721 5719 5718 5716 5714 5711 5708 5708 5707 5705 5704 5702 5700 5696 5693 5690 5686 5682 5680 5679 5677 5675 5673 5672 5669 5666 5662
5716 5720 5728 5732 5737 5740 5743 5747 5746 5745 5742 5737 5732 5726 5721 5717 5714 5711 5708 5708 5706 5703 5700 5698 5698 5697 5696 5695 5693 5689 5686 5683 5679 5675 5671 5666 5662 5659 5659 5655 5658 5658 5656 5652
5700 5713 5717 5717 5727 5731 5731 5732 5733 5730 5727 5726 5722 5716 5712 5707 5704 5701 5699 5697 5694 5692 5690 5688 5688 5686 5686 5685 5683 5681 5677 5674 5671 5667 5663 5659 5654 5647 5642 5643 5643 5642 5641 5639
5706 5712 5715 5715 5719 5722 5722 5722 5720 5717 5715 5712 5710 5707 5702 5697 5694 5691 5689 5687 5684 5682 5680 5678 5677 5675 5675 5675 5674 5672 5669 5666 5664 5661 5657 5652 5648 5644 5638 5631 5630 5629 5627 5626
5702 5703 5700 5704 5707 5710 5711 5710 5709 5706 5704 5701 5698 5694 5691 5687 5684 5681 5678 5676 5675 5672 5669 5668 5666 5665 5665 5665 5664 5663 5661 5658 5656 5653 5650 5647 5643 5640 5636 5631 5626 5619 5615 5614
5694 5696 5695 5696 5698 5699 5699 5697 5694 5691 5689 5687 5685 5682 5679 5675 5672 5669 5668 5667 5664 5661 5658 5657 5655 5654 5656 5656 5655 5654 5652 5649 5648 5646 5643 5640 5637 5634 5631 5626 5621 5615 5610 5605
5683 5686 5687 5685 5684 5684 5686 5684 5681 5678 5676 5674 5671 5669 5666 5664 5661 5658 5657 5655 5652 5648 5647 5646 5644 5644 5646 5646 5645 5643 5641 5639 5639 5638 5636 5633 5630 5627 5623 5619 5614 5609 5605 5601
5671 5671 5673 5673 5673 5673 5673 5672 5670 5667 5664 5661 5658 5657 5655 5652 5649 5646 5645 5643 5641 5638 5636 5635 5634 5634 5635 5636 5636 5635 5633 5631 5630 5629 5628 5625 5622 5618 5614 5611 5606 5601 5596 5591
5667 5668 5669 5668 5666 5662 5660 5659 5658 5655 5652 5650 5649 5646 5643 5641 5638 5635 5634 5632 5630 5627 5626 5625 5624 5625 5625 5625 5625 5625 5624 5623 5622 5620 5618 5615 5612 5609 5606 5602 5597 5592 5587 5583
5659 5659 5659 5659 5657 5653 5650 5648 5646 5644 5643 5641 5638 5636 5633 5630 5628 5626 5625 5622 5620 5616 5614 5615 5615 5617 5616 5615 5616 5617 5617 5616 5613 5610 5607 5603 5602 5599 5595 5591 5586 5582 5578 5573
5648 5649 5648 5647 5645 5641 5638 5637 5636 5634 5632 5630 5628 5625 5621 5620 5618 5617 5615 5612 5609 5608 5607 5607 5608 5608 5607 5607 5608 5610 5609 5607 5603 5600 5597 5594 5591 5587 5583 5579 5575 5571 5567 5562
5636 5636 5635 5634 5631 5630 5628 5628 5626 5624 5623 5621 5618 5616 5613 5612 5610 5609 5606 5602 5600 5600 5600 5598 5599 5598 5598 5597 5599 5601 5599 5597 5594 5590 5587 5583 5579 5576 5572 5568 5564 5560 5555 5551
5627 5626 5624 5623 5621 5619 5619 5618 5617 5616 5614 5612 5610 5608 5606 5604 5602 5600 5598 5595 5593 5592 5593 5592 5591 5588 5588 5589 5592 5591 5589 5586 5583 5580 5576 5572 5568 5564 5560 5556 5552 5548 5544 5540
5618 5617 5616 5614 5613 5612 5611 5610 5609 5608 5606 5604 5603 5602 5601 5599 5598 5594 5590 5588 5587 5585 5586 5584 5582 5581 5580 5583 5583 5581 5579 5576 5573 5570 5566 5561 5558 5553 5549 5545 5541 5537 5533 5529
5609 5609 5608 5608 5607 5605 5603 5602 5601 5600 5599 5598 5597 5596 5595 5592 5589 5587 5584 5581 5580 5579 5578 5574 5574 5574 5574 5576 5575 5572 5570 5567 5564 5561 5557 5552 5547 5542 5538 5534 5530 5526 5522 5518
5603 5603 5603 5602 5600 5598 5597 5596 5594 5593 5593 5593 5592 5591 5591 5589 5585 5582 5579 5576 5573 5574 5571 5568 5567 5567 5567 5568 5566 5563 5559 5556 5553 5551 5546 5542 5538 5533 5528 5524 5520 5517 5513 5508
5597 5596 5597 5597 5597 5595 5594 5593 5591 5590 5590 5588 5587 5586 5584 5582 5579 5576 5573 5571 5569 5567 5566 5564 5562 5561 5560 5559 5556 5553 5550 5546 5544 5540 5536 5532 5528 5524 5519 5514 5510 5506 5502 5498
5591 5591 5591 5592 5591 5592 5591 5590 5588 5586 5585 5584 5581 5579 5578 5576 5574 5571 5569 5567 5565 5563 5561 5559 5557 5555 5553 5550 5547 5544 5541 5537 5533 5529 5525 5522 5518 5513 5509 5504 5500 5497 5492 5488